www.pogodaiklimat.ru

Погода и климат >> Архив погоды >> Пакистан >> Мултан


ПОГОДА в Мултане

  • Прогноз погоды в Мултане
  • Монитор погоды в Мултане

АРХИВ ПОГОДЫ в Мултане

Время (UTC), дата Ветер
(напр.,м/с)
 
Видим.   Явления Облачность Т
(С)
Тd
(С)
f
(%)
Тe
(С)
Тes
(С)
Комфортность P
(гПа)
Po
(гПа)
Тmin
(С)
Tmax
(С)
R
(мм)
R24
(мм)
S
(см)
03 15.04 СВ 4 4000 м дым 6/0
[Ac trans Ci fib]
+22.5 +16.8 70 +27 +29 душно 1011.7 997.4 +20.2
06 15.04 С 3 4000 м мгла 8/3 1200 м
[Sc Ac trans]
+29.5 +15.9 44 +33 +38 душно 1011.5 997.2
09 15.04 СВ 4 4000 м пыльный позёмок 9/4 1200 м
[Sc Ac As]
+32.5 +15.9 37 +35 +38 душно 1008.4 1000.0
12 15.04 СВ 3 2000 м гроза, ливневой дождь {метель} 10/10 300 м
[Cb cap As op]
+20.0 +17.6 86 +23 +23 комфорт 1009.6 995.3 +33.1 2
15 15.04 С 4 4000 м дым {гроза, дождь} 9/5 1200 м
[Sc Ac As]
+21.0 +16.0 73 +25 +25 комфорт 1008.7 994.4 2
18 15.04 СВ 3 4000 м дым 9/4 1200 м
[Sc Ac As]
+20.0 +16.7 81 +23 +23 комфорт 1009.1 994.8
21 15.04 штиль 0 4000 м дым 4/0
[Ac As]
+19.0 +17.4 90 +20 +20 1008.1 993.7
00 16.04 штиль 0 4000 м дым ясно +18.0 +16.3 90 +18 +18 1006.9 992.6
03 16.04 СВ 2 4000 м дым 1/0
[Ac trans]
+19.5 +17.0 85 +22 +28 комфорт 1008.3 994.0 +17.5
06 16.04 СВ 2 4000 м дым 5/1 1200 м
[Sc diur, vesp Ac trans]
+24.0 +17.6 67 +28 +38 душно 1008.6 994.3
09 16.04 ЮЗ 2 4000 м дым 5/5 1200 м
[Sc diur, vesp]
+28.0 +18.8 57 +33 +42 очень
душно
1005.4 1000.0
12 16.04 СЗ 5 4000 м гроза без осадков 9/6 900 м
[Cb cap Ac As]
+21.5 +14.8 66 +25 +25 комфорт 1005.3 991.1 +29.2 0.0
15 16.04 В 2 4000 м в посл. час дождь {гроза} 10/6 900 м
[Cb cap As op]
+19.0 +15.6 81 +21 +21 комфорт 1007.5 1000.0 2
18 16.04 СВ 5 4000 м зарница {гроза} 10/3 900 м
[Cb calv As op]
+18.5 +15.1 81 +19 +19 1007.9 993.6
21 16.04 С 2 4000 м дым 9/6 300 м
[Sc diur, vesp Ac As]
+18.0 +15.5 85 +19 +19 1009.4 994.9
00 17.04 С 2 4000 м дым 5/0
[Ac As]
+17.0 +15.3 90 +18 +18 1008.8 994.5
03 17.04 СВ 3 4000 м дым 9/5 1200 м
[Sc diur, vesp Ac As]
+19.0 +16.5 85 +21 +21 комфорт 1011.8 997.5 +16.7
06 17.04 СЗ 3 4000 м дым 10/3 600 м
[Sc diur, vesp Ac trans]
+22.0 +16.3 70 +26 +30 душно 1013.1 998.7
09 17.04 СЗ 2 4000 м дым 9/5 900 м
[Sc Ac trans]
+22.5 +16.8 70 +27 +29 душно 1011.5 1000.0
12 17.04 СВ 4 4000 м дым 8/4 900 м
[Sc Ac trans]
+23.0 +16.5 67 +28 +28 душно 1010.5 996.1 +23.3
15 17.04 С 2 4000 м дым 3/0
[Ac trans]
+20.5 +17.3 82 +25 +25 комфорт 1011.8 1000.0
18 17.04 СВ 3 4000 м дым ясно +19.5 +17.0 85 +22 +22 комфорт 1014.0 999.7
21 17.04 СВ 1 4000 м дым 3/0
[Ac trans]
+18.0 +16.3 90 +19 +19 1013.5 1000.0
00 18.04 СВ 2 4000 м дым 4/0
[Ac trans]
+17.0 +15.3 90 +17 +17 1013.7 999.3
03 18.04 СВ 2 4000 м дым 4/0
[Ac As]
+19.0 +16.5 85 +21 +25 комфорт 1015.2 1000.9 +16.5
06 18.04 С 2 4000 м дым 4/4 1200 м
[Sc diur, vesp]
+24.5 +15.5 57 +27 +39 жарко 1015.9 1001.6
09 18.04 С 6 4000 м дым 5/5 1200 м
[Sc diur, vesp]
+26.0 +15.4 52 +29 +32 душно 1014.4 1000.2
12 18.04 С 3 4000 м мгла 3/3 1200 м
[Sc diur, vesp]
+27.5 +14.3 44 +30 +32 жарко 1012.5 998.2 +27.8
15 18.04 СВ 3 4000 м дым ясно +25.0 +15.1 54 +28 +28 жарко 1013.2 999.0
18 18.04 штиль 0 4000 м дым ясно +23.0 +16.5 67 +28 +28 душно 1013.3 998.9
21 18.04 штиль 0 4000 м дым ясно +20.5 +17.3 82 +24 +24 комфорт 1011.4 1000.0
00 19.04 штиль 0 4000 м дым ясно +19.0 +17.4 90 +20 +20 1010.5 996.1
03 19.04 штиль 0 4000 м дым 3/0
[Ci fib]
+22.0 +17.2 74 +26 +33 душно 1011.3 997.0 +18.7
06 19.04 ЮЗ 2 4000 м мгла ясно +29.0 +14.2 40 +31 +49 жарко 1012.2 997.9
09 19.04 Ю 1 4000 м мгла ясно +31.5 +14.5 36 +33 +53 опасность
солнечного
удара
1009.7 1000.0
12 19.04 штиль 0 4000 м мгла ясно +33.0 +13.3 30 +34 +38 очень
жарко
1007.9 993.6 +33.2
15 19.04 штиль 0 4000 м мгла 1/0
[Ac trans]
+29.5 +15.9 44 +33 +33 душно 1008.2 1000.0
18 19.04 штиль 0 4000 м дым 5/0
[Ac trans]
+27.0 +15.7 50 +30 +30 душно 1008.6 994.3
21 19.04 штиль 0 4000 м дым 3/0
[Ac trans]
+25.0 +17.0 61 +29 +29 душно 1007.5 1000.0
00 20.04 ЮВ 2 4000 м дым ясно +24.0 +15.8 60 +27 +27 жарко 1006.6 992.3
03 20.04 Ю 2 4000 м дым ясно +25.0 +15.1 54 +28 +34 жарко 1008.0 993.7 +21.3
06 20.04 ЮЗ 3 4000 м мгла ясно +31.5 +14.5 36 +33 +48 жарко 1008.2 993.9
09 20.04 ЮЗ 2 4000 м мгла ясно +34.5 +13.3 28 +35 +52 опасность
солнечного
удара
1005.9 1000.0
12 20.04 Ю 4 4000 м мгла ясно +36.0 +12.0 24 +36 +38 очень
жарко
1003.7 989.5 +36.1
15 20.04 штиль 0 4000 м мгла 1/0
[Ac trans]
+32.5 +14.8 34 +34 +34 очень
жарко
1004.0 1000.0
18 20.04 штиль 0 4000 м мгла 3/0
[Ac trans]
+30.0 +15.6 42 +33 +33 душно 1005.6 991.4
21 20.04 штиль 0 4000 м зарница 5/1 900 м
[Cb cap Ac As]
+28.0 +15.9 48 +31 +31 душно 1005.3 1000.0
00 21.04 штиль 0 4000 м дым ясно +26.0 +17.3 59 +30 +30 душно 1004.1 989.9
03 21.04 штиль 0 4000 м дым 1/0
[Ac trans]
+28.0 +16.9 51 +32 +38 душно 1006.4 992.1 +24.0
06 21.04 В 3 4000 м мгла ясно +34.0 +13.7 29 +35 +50 очень
жарко
1007.0 992.8
09 21.04 штиль 0 4000 м мгла ясно +37.0 +13.7 25 +37 +60 опасность
солнечного
удара
1004.9 1000.0
12 21.04 ЮВ 2 4000 м мгла ясно +37.5 +13.3 24 +38 +41 очень
жарко
1003.1 988.9 +38.2
15 21.04 штиль 0 4000 м мгла ясно +33.0 +15.5 35 +35 +35 душно 1003.4 1000.0
18 21.04 штиль 0 4000 м мгла ясно +31.5 +15.5 38 +34 +34 душно 1004.3 990.1
21 21.04 штиль 0 4000 м мгла ясно +29.5 +14.9 41 +32 +32 душно 1003.6 1000.0

 

Местоположение метеостанции Мултан (Пакистан): широта 30.20 долгота 71.43 высота над уровнем моря 123 м.

В архиве по умолчанию представлена погода в Мултане за последнюю неделю. Архивные данные за месяц целиком и за предыдущие месяцы, начиная с января 2011 года, Вы можете получить, выбрав интересующий диапазон дат из раскрывающегося списка и нажав кнопку "Ввод!".


*Определитесь, кто Вы:
робот инопланетянин человек

Внимание! Время в таблицах - всемирное. Для получения местного времени необходимо прибавить поправку, которая равна 5 ч.

Смотрите также архив погоды в соседних городах и на ближайших метеорологических станциях:

Погода в Ханевале (Пакистан) (47 км)
Погода в Кот Адду (Пакистан) (54 км)
Погода в Дера Гази Хан (Пакистан) (79 км)
Погода в Бахавалпуре (Пакистан) (95 км)
Погода а Бахавалпур аэропорту (Пакистан) (95 км)
Погода на Авиабазе Raifiqui (Пакистан) (98 км)
Погода в Леяхе (Пакистан) (101 км)
Погода в Тоба Тек Сингх (Пакистан) (132 км)
Погода в Джанге (Пакистан) (146 км)
Погода в Сахивале (Пакистан) (161 км)

Пояснения к столбцам:

Ветер - указаны скорость ветра в м/с - средняя за 10 мин, порывы в срок и между сроками (в фигурных скобках) и направление, откуда дует ветер: С - северный, СВ - северо-восточный, В - восточный, ЮВ - юго-восточный, Ю - южный, ЮЗ - юго-западный, З - западный, СЗ - северо-западный.
Видимость - горизонтальная дальность видимости в метрах или километрах. При видимости от 1 до 10 км при отсутствии осадков обычно наблюдается дымка, при ухудшении видимости до 1 км и менее - туман. В сухую погоду видимость может ухудшаться дымом, пылью или мглою.
Явления - указаны атмосферные явления, наблюдавшиеся в срок или в последний час перед сроком; фигурными скобками обозначены явления, наблюдавшиеся между сроками (за 1-3 часа до срока); квадратными скобками обозначены град или гололедные отложения с указанием их диаметра в мм.
Облачность - указаны через наклонную черту общая и нижняя облачность в баллах и высота нижней границы облаков в метрах; квадратными скобками обозначены формы облаков: Ci - перистые, Cs - перисто-слоистые, Cc - перисто-кучевые, Ac - высококучевые, As - высокослоистые, Sc - слоисто-кучевые, Ns - слоисто-дождевые, Cu - кучевые, Cb - кучево-дождевые. Подробнее классификацию облаков см. в Атласе облаков (PDF).
T - Температура воздуха - температура, измеренная на высоте 2 м над землей.
Td - Температура точки росы - температура, при понижении до которой содержащийся в воздухе водяной пар достигнет насыщения.
f - Относительная влажность воздуха - влажноcть воздуха, измеренная на высоте 2 м над землей.
Te - Эффективная температура - температура, которую ощущает одетый по сезону человек в тени. Характеристика душности погоды. При расчете учитывается влияние влажности воздуха и скорости ветра на теплоощущения человека.
Tes - Эффективная температура на солнце - температура, которую ощущает человек, с поправкой на солнечный нагрев. Характеристика знойности погоды. Зависит от высоты солнца над горизонтом, облачности и скорости ветра. Ночью, в пасмурную погоду, а также при ветре 12 м/с и более поправка равна нулю.
P - Атмосферное давление - приведенное к уровню моря атмосферное давление.
Po - Атмосферное давление - измеренное на уровне метеостанции атмосферное давление.
Tmin - Минимальная температура - минимум температуры воздуха на высоте 2 м над землей.
Tmax - Максимальная температура - максимум температуры воздуха на высоте 2 м над землей.
R - Количество осадков - Количество выпавших осадков за период времени, мм. При наведении курсора мыши на число - период времени, за который выпало указанное количество осадков.
R24 - Количество осадков - Количество выпавших осадков за 24 часа, мм.
S - Снежный покров - Высота снежного покрова, см. При наведении курсора мыши на число - состояние снежного покрова и степень покрытия местности в баллах.